M0CJS Weather Reports


Display with metric or nautical units.
time (UTC)temp
F
wind
direction
speed
MPH
gust
MPH
rain 1hr
in
rain 24hr
in
rain mn
in
humidity
%
barometer
mb
20260831115017 65 293 6.0 10.0 0.03 0.56 0.55 94 1013.0
20260831114017 63 293 4.0 8.0 0.03 0.56 0.55 95 1012.8
20260831113017 63 293 5.0 10.0 0.02 0.54 0.54 94 1012.7
20260831112017 63 0 6.0 11.0 0.00 0.53 0.52 91 1012.7
20260831111017 63 293 8.0 13.0 0.00 0.53 0.52 90 1012.5
20260831110017 63 293 5.0 11.0 0.00 0.53 0.52 89 1012.3
20260831105057 63 293 6.0 11.0 0.00 0.53 0.52 88 1012.1
20260831104017 63 293 6.0 11.0 0.00 0.53 0.52 90 1012.0
20260831103037 62 293 5.0 11.0 0.00 0.53 0.52 90 1011.9
20260831102017 64 293 7.0 13.0 0.00 0.53 0.52 85 1011.8
20260831101017 64 293 7.0 12.0 0.00 0.53 0.52 83 1011.7
20260831100017 64 293 7.0 16.0 0.00 0.53 0.52 83 1011.6
20260831095017 66 293 7.0 13.0 0.00 0.53 0.52 81 1011.5
20260831094017 67 270 5.0 10.0 0.00 0.53 0.52 82 1011.4
20260831093016 65 293 7.0 12.0 0.00 0.53 0.52 82 1011.3
20260831092017 63 270 4.0 13.0 0.00 0.53 0.52 88 1011.1
20260831091016 62 270 7.0 11.0 0.00 0.53 0.52 87 1011.0
20260831090017 63 270 6.0 11.0 0.00 0.53 0.52 86 1010.9
20260831085016 64 293 5.0 11.0 0.00 0.53 0.52 84 1010.6
20260831084016 64 270 4.0 8.0 0.00 0.53 0.52 86 1010.5
20260831083016 63 270 7.0 11.0 0.00 0.53 0.52 86 1010.3
20260831082017 63 293 7.0 12.0 0.00 0.53 0.52 87 1009.9
20260831081017 62 293 4.0 9.0 0.00 0.53 0.52 89 1009.8
20260831080016 61 270 5.0 9.0 0.00 0.53 0.52 89 1009.7
20260831075016 60 270 5.0 11.0 0.00 0.53 0.52 91 1009.5
20260831074016 60 270 4.0 8.0 0.00 0.53 0.52 92 1009.5
20260831073016 60 270 4.0 10.0 0.00 0.53 0.52 92 1009.3
20260831072016 59 270 5.0 10.0 0.00 0.53 0.52 92 1009.2
20260831071036 59 270 3.0 9.0 0.00 0.53 0.52 93 1009.1
20260831070016 58 270 3.0 8.0 0.00 0.53 0.52 95 1008.9
20260831065016 57 270 3.0 8.0 0.00 0.53 0.52 97 1008.7
20260831064016 56 270 2.0 4.0 0.00 0.53 0.52 97 1008.5
20260831063016 56 270 3.0 6.0 0.00 0.53 0.52 98 1008.4
20260831062016 55 248 2.0 6.0 0.00 0.53 0.52 98 1008.1
20260831061036 54 225 2.0 7.0 0.00 0.53 0.52 99 1007.8
20260831060016 54 225 2.0 7.0 0.00 0.53 0.52 99 1007.7
20260831055016 54 248 2.0 6.0 0.00 0.53 0.52 98 1007.6
20260831054016 53 225 1.0 5.0 0.00 0.53 0.52 98 1007.5
20260831053016 53 248 1.0 4.0 0.00 0.53 0.52 98 1007.3
20260831052016 54 248 1.0 4.0 0.00 0.53 0.52 98 1007.0
20260831051016 53 0.0 2.0 0.00 0.53 0.52 98 1007.0
20260831050016 54 270 1.0 2.0 0.00 0.53 0.52 98 1006.8
20260831045036 54 270 2.0 4.0 0.00 0.53 0.52 98 1006.7
20260831044016 54 248 1.0 5.0 0.00 0.53 0.52 98 1006.7
20260831043016 54 248 2.0 4.0 0.00 0.53 0.52 98 1006.6
20260831042016 54 225 2.0 6.0 0.00 0.53 0.52 98 1006.5
20260831041016 54 248 2.0 8.0 0.00 0.53 0.52 98 1006.4
20260831040016 54 225 3.0 7.0 0.00 0.53 0.52 98 1006.2
20260831035016 55 225 3.0 8.0 0.00 0.53 0.52 98 1006.2
20260831034016 55 225 2.0 6.0 0.00 0.53 0.52 98 1006.2
20260831033016 55 225 3.0 8.0 0.00 0.53 0.52 98 1006.1
20260831032016 55 225 3.0 7.0 0.00 0.53 0.52 98 1006.2
20260831031016 55 225 2.0 6.0 0.00 0.53 0.52 98 1006.1
20260831030016 55 225 2.0 5.0 0.00 0.54 0.52 98 1006.0
20260831025016 55 203 5.0 10.0 0.01 0.54 0.52 98 1005.8
20260831024036 55 203 5.0 8.0 0.02 0.54 0.52 98 1005.7
20260831023016 55 203 4.0 6.0 0.04 0.54 0.52 98 1005.7
20260831022016 55 225 2.0 6.0 0.09 0.54 0.52 98 1005.5
20260831021016 55 225 3.0 6.0 0.16 0.54 0.52 98 1005.6
20260831020016 55 203 3.0 5.0 0.26 0.54 0.52 98 1005.5
20260831015036 56 225 1.0 4.0 0.37 0.54 0.51 98 1005.5
20260831014036 56 225 1.0 3.0 0.47 0.53 0.50 98 1005.6
20260831013056 55 270 2.0 3.0 0.48 0.50 0.48 98 1005.5
20260831012036 55 23 3.0 5.0 0.43 0.46 0.43 97 1004.9
20260831011035 55 23 3.0 6.0 0.36 0.39 0.36 97 1005.1
20260831010016 55 293 3.0 6.0 0.26 0.28 0.26 96 1005.4
20260831005016 57 293 8.0 15.0 0.14 0.17 0.14 96 1005.6
20260831004016 59 225 5.0 12.0 0.03 0.06 0.03 94 1005.5
20260831003015 59 0.0 3.0 0.00 0.02 0.00 92 1005.2
20260831002016 60 203 3.0 9.0 0.00 0.02 0.00 91 1005.2
20260831001015 59 180 2.0 6.0 0.00 0.02 0.00 91 1005.1
20260831000015 59 180 3.0 8.0 0.00 0.02 0.00 91 1005.1
20260830235016 59 158 2.0 4.0 0.00 0.02 0.00 92 1005.3
20260830234016 59 180 3.0 7.0 0.00 0.02 0.00 92 1005.4
20260830233015 59 203 5.0 9.0 0.00 0.02 0.00 92 1005.4
20260830232015 59 203 4.0 9.0 0.00 0.02 0.00 92 1005.6
20260830231015 59 225 2.0 4.0 0.00 0.02 0.00 92 1005.6
20260830230015 59 225 3.0 9.0 0.00 0.05 0.02 91 1005.9
20260830225016 60 203 5.0 14.0 0.00 0.05 0.02 91 1005.8
20260830224016 60 225 6.0 10.0 0.00 0.05 0.02 89 1005.8
20260830223055 61 203 10.0 17.0 0.00 0.05 0.02 88 1005.8
20260830222016 61 203 9.0 17.0 0.00 0.05 0.02 87 1005.7
20260830221015 61 203 10.0 21.0 0.00 0.05 0.02 85 1005.8
20260830220016 62 225 10.0 20.0 0.00 0.06 0.02 84 1005.8
20260830215015 63 203 11.0 25.0 0.00 0.06 0.02 84 1005.6
20260830214015 63 203 8.0 30.0 0.00 0.06 0.02 84 1005.4
20260830213035 63 158 6.0 17.0 0.00 0.06 0.02 84 1005.3
20260830212015 63 158 4.0 8.0 0.00 0.06 0.02 85 1005.4
20260830211015 63 158 4.0 14.0 0.00 0.06 0.02 85 1005.5
20260830210015 63 158 2.0 9.0 0.01 0.06 0.02 86 1005.5
20260830205015 61 158 1.0 5.0 0.01 0.06 0.02 93 1005.6
20260830204015 61 0.0 0.0 0.01 0.06 0.02 94 1005.8
20260830203015 61 0.0 1.0 0.01 0.06 0.02 94 1005.9
20260830202015 61 270 1.0 3.0 0.01 0.06 0.02 93 1006.1
20260830201015 62 270 2.0 9.0 0.01 0.06 0.02 91 1006.3
20260830200035 63 203 5.0 13.0 0.00 0.06 0.02 84 1006.1
20260830195017 63 180 3.0 11.0 0.00 0.06 0.02 85 1006.2
20260830194017 62 0.0 0.0 0.00 0.06 0.02 91 1006.3
20260830193017 61 0.0 2.0 0.00 0.06 0.02 90 1006.2
20260830192018 61 0.0 1.0 0.00 0.06 0.02 90 1006.3
20260830191037 61 0.0 0.0 0.00 0.06 0.02 89 1006.3
20260830190017 62 0.0 1.0 0.00 0.06 0.02 89 1006.4
20260830185017 62 0.0 2.0 0.00 0.06 0.02 89 1006.7
20260830184017 62 315 1.0 4.0 0.00 0.06 0.02 88 1006.7
20260830183017 63 270 3.0 8.0 0.00 0.06 0.02 87 1006.8
20260830182037 63 270 3.0 8.0 0.00 0.06 0.02 87 1007.0
20260830181017 64 270 3.0 7.0 0.00 0.06 0.02 88 1006.9
20260830180017 65 270 3.0 4.0 0.00 0.06 0.02 86 1006.9
20260830175017 65 270 2.0 4.0 0.00 0.06 0.02 85 1006.9
20260830174017 65 248 2.0 4.0 0.00 0.06 0.02 85 1007.0
20260830173017 65 270 2.0 7.0 0.00 0.06 0.02 86 1006.9
20260830172017 66 270 6.0 20.0 0.00 0.06 0.02 81 1006.9
20260830171017 68 203 7.0 16.0 0.00 0.06 0.02 71 1006.7
20260830170017 69 203 9.0 16.0 0.00 0.06 0.02 71 1006.7
20260830165037 69 203 7.0 15.0 0.00 0.06 0.02 71 1006.9
20260830164017 69 203 5.0 11.0 0.00 0.06 0.02 74 1006.8
20260830163022 69 203 5.0 12.0 0.00 0.06 0.02 74 1006.9
20260830162017 69 203 7.0 21.0 0.00 0.06 0.02 73 1006.9
20260830161017 70 203 6.0 14.0 0.00 0.06 0.02 72 1007.2
20260830160017 70 203 8.0 15.0 0.00 0.06 0.02 71 1007.2
20260830155017 70 225 6.0 14.0 0.00 0.06 0.02 72 1007.1
20260830154057 70 203 12.0 24.0 0.00 0.06 0.02 70 1007.1
20260830153017 70 203 8.0 13.0 0.00 0.06 0.02 70 1007.1
20260830152037 71 180 5.0 13.0 0.00 0.06 0.02 69 1007.1
20260830151036 71 203 8.0 19.0 0.00 0.06 0.02 68 1007.1
20260830150016 71 203 7.0 14.0 0.00 0.12 0.02 69 1007.3
20260830145016 71 203 6.0 13.0 0.00 0.12 0.02 70 1007.7
20260830144016 71 203 5.0 13.0 0.00 0.12 0.02 72 1007.9
20260830143016 70 180 6.0 13.0 0.00 0.12 0.02 72 1008.2
20260830142016 70 203 8.0 18.0 0.00 0.12 0.02 72 1008.2
20260830141017 71 180 7.0 20.0 0.00 0.12 0.02 72 1008.2
20260830140037 71 180 5.0 13.0 0.00 0.14 0.02 72 1008.3
20260830135016 72 180 7.0 17.0 0.00 0.14 0.02 69 1008.4
20260830134017 73 203 9.0 21.0 0.00 0.14 0.02 67 1008.4
20260830133016 72 180 6.0 14.0 0.00 0.14 0.02 66 1008.5
20260830132016 74 203 9.0 22.0 0.00 0.14 0.02 66 1008.5
20260830131016 74 203 12.0 25.0 0.00 0.14 0.02 63 1008.7
20260830130016 74 203 9.0 20.0 0.00 0.14 0.02 62 1008.7
20260830125016 74 203 8.0 17.0 0.00 0.14 0.02 62 1008.9
20260830124016 74 203 10.0 19.0 0.00 0.14 0.02 62 1008.9
20260830123016 73 203 9.0 25.0 0.00 0.14 0.02 64 1008.9
20260830122016 73 203 7.0 15.0 0.00 0.14 0.02 67 1009.0
20260830121016 72 203 8.0 18.0 0.00 0.14 0.02 69 1009.1
20260830120016 72 203 7.0 14.0 0.00 0.17 0.02 69 1009.2